QPF
0.00 0.00 0.00 0.00 0.00 0.00 0.00 0.00 0.00 0.00 0.00 0.00 0.00 0.00 0.00 0.00 0.00 0.00 0.00 0.00 0.00 0.01 0.01 0.01 0.01 0.01 0.01 0.01 0.01 0.01 0.01 0.01 0.02 0.05 0.08 0.06 0.03 0.02 0.02 0.03 0.02 0.02 0.01 0.01
0.00 0.00 0.00 0.00 0.00 0.00 0.00 0.00 0.00 0.00 0.00 0.00 0.00 0.00 0.00 0.00 0.00 0.00 0.00 0.00 0.00 0.00 0.00 0.01 0.01 0.01 0.02 0.01 0.01 0.01 0.01 0.01 0.01 0.02 0.06 0.09 0.06 0.03 0.02 0.02 0.03 0.02 0.02 0.01
0.00 0.00 0.00 0.00 0.00 0.00 0.01 0.00 0.00 0.00 0.00 0.00 0.00 0.00 0.00 0.00 0.00 0.00 0.00 0.00 0.00 0.00 0.00 0.00 0.00 0.01 0.01 0.01 0.01 0.01 0.01 0.01 0.01 0.01 0.03 0.06 0.07 0.06 0.04 0.03 0.04 0.03 0.03 0.02
0.00 0.00 0.00 0.00 0.00 0.00 0.01 0.01 0.01 0.01 0.01 0.01 0.00 0.00 0.00 0.00 0.00 0.00 0.00 0.00 0.00 0.00 0.00 0.00 0.00 0.00 0.00 0.01 0.01 0.02 0.01 0.01 0.01 0.01 0.03 0.04 0.06 0.06 0.06 0.04 0.04 0.05 0.06 0.06
0.00 0.00 0.00 0.00 0.01 0.01 0.01 0.01 0.01 0.02 0.01 0.01 0.00 0.00 0.00 0.00 0.00 0.00 0.00 0.00 0.00 0.00 0.00 0.00 0.00 0.00 0.00 0.00 0.01 0.02 0.01 0.02 0.02 0.02 0.02 0.05 0.06 0.07 0.07 0.07 0.06 0.06 0.07 0.08
0.01 0.00 0.00 0.00 0.00 0.00 0.01 0.01 0.01 0.02 0.03 0.02 0.01 0.01 0.00 0.00 0.00 0.00 0.00 0.00 0.00 0.00 0.00 0.00 0.00 0.00 0.00 0.00 0.00 0.01 0.01 0.02 0.02 0.02 0.02 0.02 0.04 0.05 0.07 0.08 0.07 0.06 0.07 0.07
0.01 0.01 0.00 0.00 0.00 0.00 0.01 0.01 0.02 0.03 0.03 0.02 0.01 0.01 0.01 0.00 0.00 0.00 0.00 0.00 0.00 0.00 0.00 0.00 0.00 0.00 0.00 0.00 0.00 0.01 0.01 0.02 0.01 0.01 0.01 0.01 0.02 0.02 0.02 0.03 0.04 0.04 0.03 0.04
0.01 0.01 0.00 0.00 0.00 0.00 0.01 0.02 0.03 0.03 0.03 0.01 0.01 0.01 0.01 0.00 0.00 0.00 0.00 0.00 0.00 0.00 0.00 0.00 0.00 0.00 0.00 0.00 0.01 0.01 0.01 0.01 0.02 0.01 0.01 0.01 0.02 0.02 0.01 0.01 0.02 0.02 0.02 0.02
0.01 0.01 0.00 0.00 0.00 0.00 0.01 0.02 0.02 0.04 0.03 0.02 0.01 0.01 0.01 0.00 0.00 0.00 0.00 0.00 0.00 0.00 0.00 0.00 0.00 0.00 0.00 0.00 0.01 0.01 0.01 0.01 0.02 0.02 0.02 0.02 0.01 0.01 0.01 0.02 0.02 0.02 0.03 0.03
0.01 0.01 0.00 0.00 0.00 0.00 0.01 0.01 0.03 0.05 0.05 0.03 0.02 0.02 0.01 0.01 0.00 0.00 0.00 0.00 0.00 0.00 0.00 0.00 0.00 0.00 0.00 0.00 0.00 0.01 0.01 0.01 0.02 0.02 0.02 0.02 0.02 0.01 0.01 0.01 0.01 0.02 0.03 0.03
0.01 0.01 0.01 0.01 0.01 0.00 0.01 0.01 0.02 0.03 0.03 0.03 0.03 0.03 0.01 0.01 0.01 0.00 0.00 0.00 0.00 0.00 0.00 0.00 0.00 0.00 0.00 0.01 0.01 0.01 0.01 0.01 0.02 0.02 0.02 0.02 0.02 0.02 0.02 0.01 0.01 0.01 0.02 0.03
0.01 0.01 0.01 0.01 0.00 0.00 0.00 0.01 0.02 0.04 0.03 0.02 0.02 0.02 0.01 0.00 0.00 0.01 0.01 0.00 0.00 0.00 0.00 0.00 0.00 0.01 0.01 0.01 0.01 0.02 0.01 0.01 0.02 0.02 0.02 0.02 0.01 0.02 0.02 0.02 0.01 0.01 0.01 0.02
0.02 0.03 0.02 0.02 0.02 0.01 0.01 0.01 0.01 0.02 0.03 0.02 0.02 0.02 0.01 0.01 0.01 0.01 0.01 0.01 0.00 0.00 0.00 0.01 0.01 0.01 0.01 0.01 0.01 0.02 0.02 0.01 0.01 0.02 0.02 0.02 0.01 0.02 0.02 0.02 0.01 0.01 0.01 0.02
0.03 0.03 0.02 0.02 0.02 0.02 0.01 0.00 0.01 0.02 0.03 0.02 0.02 0.01 0.01 0.02 0.02 0.01 0.01 0.01 0.00 0.00 0.00 0.01 0.01 0.01 0.01 0.01 0.01 0.01 0.01 0.01 0.01 0.01 0.02 0.02 0.02 0.02 0.02 0.01 0.02 0.02 0.02 0.02
0.02 0.02 0.01 0.00 0.01 0.01 0.01 0.01 0.01 0.02 0.02 0.03 0.02 0.02 0.02 0.02 0.02 0.01 0.01 0.01 0.01 0.00 0.00 0.01 0.01 0.02 0.02 0.02 0.02 0.01 0.01 0.01 0.01 0.01 0.01 0.01 0.01 0.01 0.01 0.01 0.01 0.01 0.02 0.02
0.02 0.02 0.01 0.00 0.00 0.01 0.01 0.01 0.01 0.01 0.02 0.02 0.02 0.02 0.02 0.02 0.02 0.02 0.01 0.01 0.01 0.01 0.01 0.01 0.02 0.02 0.03 0.02 0.02 0.02 0.02 0.01 0.01 0.02 0.01 0.01 0.01 0.01 0.01 0.01 0.01 0.01 0.02 0.02
0.03 0.03 0.02 0.01 0.01 0.01 0.02 0.02 0.02 0.02 0.02 0.02 0.03 0.03 0.02 0.02 0.02 0.03 0.02 0.02 0.02 0.02 0.01 0.02 0.02 0.03 0.03 0.03 0.02 0.02 0.02 0.01 0.01 0.01 0.02 0.01 0.02 0.02 0.02 0.02 0.02 0.02 0.02 0.02
0.02 0.03 0.04 0.03 0.02 0.03 0.03 0.01 0.02 0.02 0.02 0.03 0.03 0.03 0.03 0.02 0.03 0.04 0.03 0.02 0.02 0.02 0.03 0.03 0.03 0.03 0.03 0.03 0.03 0.03 0.03 0.02 0.02 0.02 0.02 0.02 0.02 0.02 0.02 0.02 0.02 0.02 0.02 0.02
0.01 0.03 0.05 0.05 0.04 0.03 0.02 0.01 0.02 0.02 0.03 0.02 0.02 0.02 0.02 0.03 0.03 0.04 0.03 0.03 0.03 0.03 0.03 0.04 0.05 0.05 0.03 0.04 0.05 0.05 0.04 0.03 0.03 0.02 0.02 0.02 0.02 0.02 0.02 0.02 0.02 0.02 0.02 0.02
0.01 0.03 0.06 0.05 0.04 0.03 0.02 0.01 0.01 0.03 0.04 0.02 0.02 0.02 0.02 0.02 0.03 0.03 0.03 0.03 0.03 0.03 0.03 0.04 0.05 0.06 0.05 0.04 0.04 0.05 0.04 0.04 0.04 0.03 0.03 0.02 0.02 0.02 0.02 0.02 0.02 0.03 0.03 0.03
0.01 0.02 0.03 0.03 0.04 0.03 0.02 0.01 0.01 0.03 0.03 0.02 0.02 0.02 0.03 0.03 0.04 0.03 0.03 0.03 0.03 0.03 0.03 0.04 0.05 0.06 0.08 0.07 0.05 0.04 0.04 0.04 0.04 0.03 0.03 0.03 0.02 0.02 0.02 0.02 0.02 0.03 0.04 0.04
0.01 0.02 0.03 0.03 0.04 0.03 0.02 0.01 0.02 0.03 0.02 0.02 0.02 0.02 0.03 0.04 0.03 0.02 0.03 0.03 0.03 0.04 0.04 0.04 0.05 0.05 0.07 0.08 0.08 0.07 0.06 0.06 0.04 0.03 0.03 0.04 0.03 0.03 0.02 0.02 0.02 0.03 0.03 0.04
0.02 0.03 0.04 0.04 0.04 0.03 0.03 0.03 0.03 0.03 0.02 0.02 0.02 0.02 0.03 0.03 0.03 0.03 0.03 0.03 0.03 0.04 0.04 0.04 0.05 0.05 0.06 0.07 0.08 0.09 0.09 0.09 0.07 0.06 0.05 0.04 0.04 0.04 0.03 0.03 0.03 0.03 0.03 0.04
0.02 0.02 0.03 0.03 0.03 0.02 0.03 0.03 0.03 0.03 0.03 0.03 0.02 0.02 0.02 0.03 0.03 0.03 0.03 0.03 0.03 0.03 0.03 0.04 0.04 0.04 0.05 0.06 0.07 0.08 0.09 0.10 0.09 0.08 0.07 0.06 0.05 0.05 0.05 0.05 0.04 0.03 0.04 0.04
0.01 0.01 0.01 0.01 0.01 0.01 0.02 0.02 0.02 0.03 0.03 0.03 0.03 0.02 0.02 0.02 0.03 0.03 0.03 0.02 0.02 0.02 0.03 0.03 0.03 0.04 0.04 0.05 0.06 0.06 0.07 0.07 0.07 0.08 0.08 0.07 0.05 0.06 0.06 0.06 0.06 0.04 0.04 0.05
0.01 0.01 0.02 0.01 0.01 0.02 0.01 0.01 0.02 0.02 0.02 0.02 0.02 0.02 0.02 0.02 0.02 0.02 0.02 0.02 0.02 0.02 0.03 0.03 0.03 0.04 0.04 0.05 0.05 0.05 0.05 0.06 0.06 0.07 0.07 0.05 0.05 0.05 0.06 0.06 0.05 0.05 0.04 0.04
MSLP
1013.35 1013.73 1014.07 1014.29 1014.32 1014.14 1013.78 1013.32 1012.87 1012.56 1012.48 1012.69 1013.22 1014.00 1014.94 1015.92 1016.81 1017.49 1017.89 1018.01 1017.89 1017.60 1017.25 1016.94 1016.78 1016.79 1017.01 1017.39 1017.90 1018.48 1019.06 1019.61 1020.11 1020.56 1020.97 1021.36 1021.74 1022.11 1022.47 1022.79 1023.05 1023.24 1023.35 1023.38
1014.40 1014.89 1015.32 1015.59 1015.63 1015.43 1015.01 1014.48 1013.96 1013.59 1013.48 1013.70 1014.28 1015.15 1016.21 1017.32 1018.33 1019.10 1019.56 1019.68 1019.48 1019.06 1018.52 1017.99 1017.57 1017.34 1017.32 1017.52 1017.89 1018.38 1018.93 1019.50 1020.04 1020.56 1021.04 1021.49 1021.91 1022.31 1022.68 1022.99 1023.25 1023.42 1023.52 1023.55
1015.80 1016.36 1016.83 1017.10 1017.11 1016.85 1016.35 1015.73 1015.12 1014.67 1014.51 1014.71 1015.29 1016.20 1017.33 1018.53 1019.63 1020.49 1021.01 1021.15 1020.93 1020.44 1019.77 1019.07 1018.45 1018.00 1017.78 1017.79 1018.01 1018.39 1018.88 1019.42 1019.97 1020.52 1021.03 1021.52 1021.97 1022.39 1022.76 1023.08 1023.33 1023.50 1023.61 1023.65
1017.44 1018.01 1018.46 1018.69 1018.64 1018.29 1017.71 1017.00 1016.31 1015.78 1015.55 1015.71 1016.26 1017.16 1018.31 1019.54 1020.69 1021.61 1022.18 1022.37 1022.17 1021.66 1020.94 1020.14 1019.39 1018.79 1018.40 1018.24 1018.30 1018.55 1018.94 1019.42 1019.93 1020.46 1020.97 1021.46 1021.91 1022.33 1022.71 1023.03 1023.29 1023.49 1023.62 1023.69
1019.14 1019.68 1020.08 1020.24 1020.11 1019.69 1019.04 1018.26 1017.51 1016.93 1016.65 1016.75 1017.25 1018.10 1019.20 1020.41 1021.55 1022.49 1023.10 1023.33 1023.18 1022.71 1022.00 1021.19 1020.39 1019.69 1019.18 1018.88 1018.80 1018.90 1019.16 1019.53 1019.95 1020.41 1020.88 1021.33 1021.77 1022.18 1022.56 1022.89 1023.17 1023.40 1023.57 1023.69
1020.75 1021.23 1021.54 1021.62 1021.42 1020.95 1020.28 1019.50 1018.75 1018.16 1017.86 1017.91 1018.34 1019.10 1020.11 1021.23 1022.30 1023.20 1023.82 1024.08 1024.00 1023.60 1022.96 1022.20 1021.41 1020.69 1020.11 1019.70 1019.49 1019.45 1019.56 1019.78 1020.08 1020.43 1020.81 1021.21 1021.60 1021.99 1022.36 1022.71 1023.02 1023.28 1023.50 1023.68
1022.15 1022.53 1022.75 1022.76 1022.52 1022.06 1021.42 1020.70 1020.02 1019.49 1019.20 1019.23 1019.59 1020.24 1021.11 1022.09 1023.04 1023.85 1024.42 1024.69 1024.66 1024.35 1023.81 1023.14 1022.41 1021.72 1021.13 1020.66 1020.34 1020.16 1020.12 1020.19 1020.34 1020.56 1020.84 1021.14 1021.48 1021.84 1022.20 1022.55 1022.89 1023.19 1023.45 1023.67
1023.26 1023.54 1023.68 1023.64 1023.40 1022.99 1022.46 1021.87 1021.33 1020.91 1020.69 1020.73 1021.03 1021.56 1022.26 1023.05 1023.82 1024.48 1024.96 1025.20 1025.20 1024.96 1024.53 1023.97 1023.36 1022.73 1022.16 1021.66 1021.27 1020.99 1020.81 1020.73 1020.74 1020.82 1020.98 1021.20 1021.47 1021.78 1022.12 1022.47 1022.82 1023.15 1023.45 1023.70
1024.11 1024.29 1024.35 1024.29 1024.09 1023.79 1023.41 1023.01 1022.65 1022.40 1022.29 1022.36 1022.61 1023.01 1023.53 1024.10 1024.65 1025.12 1025.46 1025.63 1025.61 1025.43 1025.10 1024.66 1024.16 1023.63 1023.11 1022.63 1022.20 1021.84 1021.56 1021.36 1021.25 1021.21 1021.26 1021.38 1021.58 1021.85 1022.16 1022.49 1022.84 1023.17 1023.48 1023.75
1024.75 1024.84 1024.86 1024.79 1024.67 1024.49 1024.29 1024.10 1023.95 1023.87 1023.89 1024.00 1024.21 1024.49 1024.82 1025.16 1025.48 1025.73 1025.89 1025.95 1025.90 1025.74 1025.49 1025.16 1024.77 1024.34 1023.90 1023.47 1023.04 1022.65 1022.31 1022.02 1021.81 1021.68 1021.64 1021.69 1021.82 1022.03 1022.30 1022.61 1022.93 1023.25 1023.54 1023.80
1025.30 1025.32 1025.30 1025.26 1025.20 1025.15 1025.12 1025.13 1025.17 1025.25 1025.37 1025.52 1025.68 1025.85 1025.99 1026.11 1026.19 1026.22 1026.20 1026.14 1026.02 1025.86 1025.66 1025.42 1025.14 1024.82 1024.47 1024.10 1023.71 1023.33 1022.96 1022.64 1022.37 1022.18 1022.08 1022.07 1022.14 1022.29 1022.51 1022.77 1023.05 1023.33 1023.59 1023.82
1025.86 1025.84 1025.81 1025.78 1025.78 1025.83 1025.92 1026.07 1026.25 1026.44 1026.63 1026.79 1026.89 1026.94 1026.92 1026.84 1026.71 1026.54 1026.36 1026.17 1025.99 1025.81 1025.64 1025.47 1025.28 1025.05 1024.80 1024.50 1024.17 1023.83 1023.48 1023.15 1022.87 1022.65 1022.51 1022.45 1022.47 1022.57 1022.73 1022.92 1023.14 1023.37 1023.59 1023.78
1026.50 1026.46 1026.42 1026.41 1026.44 1026.53 1026.69 1026.90 1027.14 1027.38 1027.58 1027.72 1027.76 1027.70 1027.54 1027.30 1027.00 1026.68 1026.36 1026.08 1025.83 1025.64 1025.49 1025.36 1025.23 1025.09 1024.92 1024.70 1024.44 1024.14 1023.83 1023.53 1023.26 1023.04 1022.87 1022.78 1022.76 1022.80 1022.90 1023.03 1023.18 1023.35 1023.51 1023.66
1027.22 1027.19 1027.16 1027.14 1027.17 1027.26 1027.41 1027.61 1027.84 1028.05 1028.21 1028.28 1028.25 1028.10 1027.84 1027.49 1027.08 1026.66 1026.26 1025.91 1025.62 1025.41 1025.27 1025.17 1025.09 1025.00 1024.88 1024.73 1024.53 1024.29 1024.03 1023.77 1023.52 1023.30 1023.14 1023.02 1022.97 1022.96 1022.99 1023.06 1023.14 1023.25 1023.36 1023.48
1027.97 1027.98 1027.95 1027.93 1027.92 1027.96 1028.04 1028.17 1028.31 1028.44 1028.52 1028.52 1028.42 1028.20 1027.88 1027.48 1027.03 1026.56 1026.13 1025.75 1025.45 1025.22 1025.08 1024.98 1024.92 1024.85 1024.77 1024.65 1024.50 1024.31 1024.09 1023.86 1023.65 1023.45 1023.29 1023.16 1023.08 1023.02 1023.01 1023.01 1023.04 1023.09 1023.15 1023.24
1028.68 1028.72 1028.71 1028.66 1028.60 1028.56 1028.54 1028.56 1028.58 1028.60 1028.59 1028.51 1028.35 1028.10 1027.77 1027.37 1026.93 1026.48 1026.05 1025.68 1025.37 1025.14 1024.98 1024.86 1024.78 1024.71 1024.63 1024.52 1024.38 1024.22 1024.03 1023.84 1023.65 1023.48 1023.33 1023.20 1023.09 1023.01 1022.96 1022.92 1022.90 1022.90 1022.93 1022.99
1029.23 1029.31 1029.30 1029.23 1029.11 1028.98 1028.85 1028.75 1028.66 1028.57 1028.47 1028.34 1028.16 1027.92 1027.61 1027.26 1026.87 1026.47 1026.09 1025.73 1025.43 1025.18 1024.98 1024.83 1024.70 1024.58 1024.47 1024.34 1024.19 1024.04 1023.87 1023.71 1023.55 1023.40 1023.27 1023.15 1023.05 1022.95 1022.87 1022.80 1022.75 1022.72 1022.72 1022.75
1029.53 1029.63 1029.62 1029.51 1029.34 1029.14 1028.92 1028.72 1028.54 1028.38 1028.23 1028.08 1027.92 1027.72 1027.48 1027.20 1026.89 1026.56 1026.22 1025.89 1025.59 1025.30 1025.05 1024.83 1024.62 1024.44 1024.26 1024.08 1023.91 1023.75 1023.59 1023.45 1023.33 1023.21 1023.11 1023.02 1022.94 1022.85 1022.77 1022.69 1022.62 1022.57 1022.54 1022.55
1029.55 1029.63 1029.60 1029.46 1029.25 1028.99 1028.72 1028.47 1028.25 1028.06 1027.91 1027.79 1027.67 1027.54 1027.39 1027.20 1026.97 1026.70 1026.41 1026.09 1025.75 1025.42 1025.09 1024.77 1024.47 1024.19 1023.94 1023.70 1023.50 1023.32 1023.17 1023.06 1022.97 1022.90 1022.85 1022.81 1022.77 1022.72 1022.66 1022.59 1022.52 1022.46 1022.41 1022.39
1029.27 1029.31 1029.24 1029.07 1028.83 1028.55 1028.27 1028.01 1027.80 1027.65 1027.54 1027.48 1027.43 1027.39 1027.32 1027.21 1027.04 1026.82 1026.53 1026.19 1025.81 1025.40 1024.98 1024.56 1024.16 1023.78 1023.44 1023.15 1022.91 1022.72 1022.59 1022.51 1022.47 1022.47 1022.48 1022.51 1022.53 1022.53 1022.52 1022.49 1022.44 1022.37 1022.32 1022.26
1028.77 1028.73 1028.59 1028.39 1028.14 1027.88 1027.62 1027.41 1027.25 1027.17 1027.13 1027.15 1027.18 1027.21 1027.21 1027.16 1027.02 1026.80 1026.50 1026.11 1025.66 1025.16 1024.64 1024.12 1023.61 1023.14 1022.73 1022.39 1022.13 1021.94 1021.84 1021.80 1021.83 1021.89 1021.99 1022.09 1022.19 1022.28 1022.33 1022.35 1022.33 1022.29 1022.23 1022.16
1028.10 1027.97 1027.78 1027.55 1027.31 1027.08 1026.88 1026.74 1026.67 1026.67 1026.72 1026.82 1026.92 1027.01 1027.04 1026.99 1026.85 1026.60 1026.25 1025.79 1025.26 1024.67 1024.05 1023.42 1022.83 1022.30 1021.84 1021.46 1021.19 1021.02 1020.94 1020.96 1021.05 1021.19 1021.38 1021.57 1021.76 1021.93 1022.06 1022.15 1022.18 1022.17 1022.13 1022.05
1027.39 1027.17 1026.93 1026.69 1026.47 1026.29 1026.17 1026.12 1026.14 1026.23 1026.36 1026.51 1026.65 1026.76 1026.78 1026.71 1026.53 1026.21 1025.78 1025.24 1024.62 1023.94 1023.24 1022.55 1021.89 1021.31 1020.82 1020.44 1020.17 1020.01 1019.98 1020.05 1020.20 1020.41 1020.68 1020.96 1021.24 1021.50 1021.71 1021.88 1021.98 1022.02 1022.00 1021.94
1026.73 1026.43 1026.16 1025.93 1025.76 1025.65 1025.61 1025.65 1025.76 1025.91 1026.10 1026.28 1026.42 1026.50 1026.48 1026.35 1026.08 1025.69 1025.17 1024.55 1023.85 1023.10 1022.34 1021.60 1020.92 1020.32 1019.81 1019.43 1019.18 1019.05 1019.04 1019.15 1019.35 1019.62 1019.95 1020.31 1020.67 1021.01 1021.30 1021.54 1021.72 1021.82 1021.86 1021.83
1026.18 1025.87 1025.61 1025.41 1025.30 1025.26 1025.31 1025.43 1025.60 1025.79 1025.99 1026.16 1026.27 1026.29 1026.19 1025.97 1025.61 1025.13 1024.52 1023.83 1023.07 1022.28 1021.49 1020.74 1020.05 1019.45 1018.96 1018.59 1018.34 1018.23 1018.25 1018.37 1018.60 1018.91 1019.28 1019.69 1020.10 1020.51 1020.88 1021.19 1021.44 1021.61 1021.71 1021.74
1025.83 1025.54 1025.33 1025.19 1025.15 1025.20 1025.31 1025.49 1025.69 1025.90 1026.08 1026.20 1026.24 1026.17 1025.98 1025.66 1025.20 1024.63 1023.96 1023.22 1022.43 1021.63 1020.84 1020.10 1019.43 1018.85 1018.37 1018.02 1017.78 1017.67 1017.69 1017.82 1018.05 1018.36 1018.75 1019.17 1019.62 1020.07 1020.49 1020.87 1021.18 1021.42 1021.59 1021.68
Thickness
5572 5561 5552 5554 5555 5556 5553 5551 5550 5555 5555 5548 5544 5546 5549 5548 5543 5539 5536 5534 5532 5531 5530 5528 5525 5523 5520 5518 5516 5514 5513 5511 5510 5509 5509 5510 5510 5510 5510 5511 5511 5513 5514 5516
5559 5547 5550 5552 5549 5544 5541 5535 5537 5542 5542 5536 5534 5535 5540 5536 5532 5528 5525 5522 5519 5517 5516 5515 5512 5510 5508 5506 5505 5503 5502 5500 5500 5499 5499 5499 5499 5500 5500 5501 5501 5503 5504 5505
5543 5542 5543 5540 5533 5528 5528 5523 5522 5520 5521 5523 5518 5519 5526 5526 5522 5518 5514 5511 5507 5505 5502 5501 5500 5498 5496 5494 5493 5493 5491 5490 5489 5489 5488 5488 5488 5488 5488 5489 5490 5492 5493 5495
5533 5533 5530 5525 5518 5513 5513 5512 5508 5503 5494 5497 5506 5494 5515 5513 5507 5503 5499 5496 5493 5491 5490 5488 5486 5484 5484 5482 5481 5480 5479 5479 5478 5478 5477 5477 5477 5477 5477 5478 5479 5481 5482 5483
5519 5518 5513 5508 5505 5500 5497 5496 5492 5487 5481 5478 5490 5480 5495 5499 5492 5489 5485 5483 5480 5478 5476 5474 5473 5472 5472 5470 5469 5468 5467 5467 5467 5466 5467 5467 5466 5467 5467 5467 5468 5469 5470 5472
5506 5506 5500 5496 5493 5491 5485 5480 5479 5474 5467 5461 5481 5475 5481 5480 5481 5476 5472 5470 5466 5464 5463 5462 5460 5459 5457 5457 5456 5455 5455 5455 5454 5454 5455 5455 5455 5455 5455 5456 5456 5457 5459 5461
5496 5492 5487 5482 5475 5475 5470 5461 5457 5455 5455 5465 5477 5468 5461 5465 5467 5463 5457 5454 5451 5450 5448 5447 5445 5444 5444 5443 5443 5443 5443 5443 5442 5442 5443 5443 5444 5444 5445 5445 5446 5447 5448 5449
5481 5478 5473 5468 5462 5455 5456 5454 5444 5442 5452 5462 5463 5456 5450 5452 5449 5445 5441 5437 5437 5435 5434 5433 5432 5431 5430 5430 5429 5429 5430 5430 5430 5430 5431 5431 5432 5433 5434 5434 5435 5436 5437 5439
5459 5463 5461 5458 5453 5448 5446 5442 5441 5432 5434 5430 5445 5450 5444 5436 5431 5427 5425 5422 5420 5419 5418 5418 5419 5419 5418 5417 5417 5417 5417 5417 5418 5418 5419 5420 5421 5422 5423 5423 5424 5425 5426 5428
5447 5440 5448 5445 5441 5435 5433 5432 5422 5419 5419 5426 5444 5441 5428 5419 5414 5412 5409 5407 5406 5405 5404 5404 5405 5405 5405 5405 5404 5404 5404 5404 5405 5405 5406 5408 5409 5410 5411 5412 5413 5414 5415 5417
5436 5425 5432 5430 5424 5422 5417 5415 5412 5410 5414 5411 5414 5416 5411 5407 5403 5398 5396 5394 5392 5391 5389 5390 5391 5392 5392 5392 5391 5390 5391 5391 5392 5393 5394 5395 5396 5397 5399 5400 5401 5402 5404 5406
5422 5415 5413 5423 5419 5418 5414 5409 5400 5389 5393 5397 5392 5395 5398 5394 5392 5388 5383 5381 5380 5378 5376 5377 5378 5378 5378 5378 5378 5378 5378 5378 5379 5381 5381 5382 5384 5385 5386 5387 5389 5391 5393 5394
5408 5399 5396 5410 5404 5398 5396 5395 5388 5380 5376 5377 5378 5387 5386 5381 5379 5375 5370 5368 5366 5365 5364 5364 5364 5365 5366 5366 5365 5365 5365 5366 5367 5368 5369 5370 5372 5373 5374 5376 5377 5379 5381 5383
5400 5388 5385 5392 5395 5385 5379 5376 5373 5364 5358 5363 5372 5374 5371 5366 5362 5360 5357 5355 5353 5352 5351 5350 5350 5351 5353 5353 5353 5353 5354 5354 5355 5356 5357 5358 5360 5361 5362 5365 5366 5368 5370 5372
5386 5377 5379 5380 5384 5379 5373 5367 5361 5353 5353 5351 5361 5358 5357 5351 5347 5346 5343 5342 5341 5339 5338 5337 5336 5337 5339 5341 5341 5342 5342 5343 5344 5345 5346 5347 5348 5349 5351 5352 5354 5356 5358 5361
5373 5366 5369 5368 5376 5370 5364 5361 5356 5349 5345 5343 5344 5342 5342 5340 5336 5333 5330 5329 5328 5326 5325 5324 5324 5324 5326 5328 5329 5331 5331 5332 5333 5334 5334 5335 5336 5337 5338 5340 5342 5344 5346 5348
5359 5354 5355 5361 5366 5359 5351 5347 5342 5337 5331 5329 5327 5328 5328 5326 5324 5319 5316 5314 5314 5312 5312 5311 5311 5311 5313 5314 5316 5319 5320 5321 5322 5323 5323 5324 5324 5325 5326 5327 5329 5332 5334 5337
5347 5343 5345 5348 5349 5342 5345 5338 5334 5328 5322 5319 5316 5315 5313 5311 5307 5305 5303 5300 5300 5298 5298 5298 5299 5301 5302 5304 5305 5307 5308 5309 5310 5312 5312 5312 5313 5313 5314 5315 5317 5320 5322 5325
5343 5337 5336 5337 5334 5338 5336 5324 5317 5312 5309 5307 5302 5301 5300 5299 5298 5298 5293 5289 5285 5285 5286 5287 5288 5290 5292 5293 5294 5295 5297 5298 5299 5300 5300 5300 5301 5302 5303 5304 5306 5308 5311 5314
5333 5328 5323 5327 5323 5320 5317 5307 5308 5305 5300 5295 5291 5287 5286 5286 5287 5286 5280 5276 5275 5275 5276 5277 5279 5280 5282 5282 5283 5283 5285 5286 5286 5287 5288 5288 5289 5290 5291 5293 5295 5297 5300 5303
5315 5313 5309 5310 5309 5309 5295 5294 5298 5294 5289 5281 5279 5276 5273 5270 5268 5266 5267 5266 5265 5265 5266 5268 5269 5270 5271 5272 5272 5272 5273 5275 5275 5276 5277 5277 5278 5279 5281 5282 5284 5286 5290 5293
5304 5301 5300 5300 5296 5294 5280 5281 5276 5273 5272 5269 5267 5265 5262 5259 5258 5257 5256 5256 5256 5257 5258 5259 5259 5259 5260 5261 5261 5262 5263 5264 5265 5266 5267 5267 5268 5269 5271 5272 5274 5276 5279 5282
5296 5289 5290 5288 5285 5280 5271 5268 5265 5262 5259 5259 5256 5254 5252 5251 5250 5249 5248 5247 5247 5247 5248 5249 5249 5249 5249 5249 5250 5251 5252 5254 5255 5257 5257 5258 5259 5259 5261 5262 5264 5266 5269 5272
5286 5282 5280 5277 5277 5274 5268 5263 5258 5255 5253 5251 5249 5247 5245 5243 5242 5240 5240 5239 5239 5239 5239 5239 5239 5238 5238 5238 5239 5240 5242 5243 5245 5246 5247 5248 5249 5250 5251 5253 5254 5256 5259 5262
5274 5269 5268 5266 5265 5263 5263 5256 5251 5248 5245 5243 5241 5239 5237 5235 5233 5231 5230 5230 5229 5230 5229 5229 5228 5227 5227 5228 5229 5230 5232 5234 5234 5235 5236 5238 5239 5240 5241 5243 5244 5247 5250 5252
5263 5256 5252 5256 5254 5249 5249 5247 5244 5240 5237 5235 5232 5230 5229 5226 5224 5223 5221 5220 5219 5219 5218 5218 5218 5218 5218 5219 5219 5221 5222 5223 5224 5226 5227 5229 5230 5231 5232 5234 5236 5238 5241 5245